Tracking 29892 objects as of 21-Nov-2024
HD Live streaming from Space Station
objects crossing your sky now

STARLINK-30854

Track STARLINK-30854 now!
10-day predictions
STARLINK-30854 is classified as:


NORAD ID: 58244
Int'l Code: 2023-171Q
Perigee: 565.3 km
Apogee: 567.2 km
Inclination: 43.0 °
Period: 95.8 minutes
Semi major axis: 6937 km
RCS: Unknown
Launch date: November 8, 2023
Source: United States (US)
Launch site: AIR FORCE EASTERN TEST RANGE (AFETR)
Your satellite tracking list
Your tracking list is empty




NASA's NSSDC Master Catalog

Two Line Element Set (TLE):
1 58244U 23171Q   24326.11794749  .00001351  00000-0  11504-3 0  9990
2 58244  43.0052 340.4738 0001372 271.7100  88.3585 15.02539332 58507
Source of the keplerian elements: AFSPC